Showing default

MAROC TUBSAT, 27004

Orbit data source: Space-Track

MAROC TUBSAT, 27004 is a payload satellite owned by CRTS (DE) in SSO that was launched on Mon, 10 Dec 2001 UTC via a ZENIT-2 launch vehicle from the Tyuratam Missile And Space Complex (TTMTR). Payload-class satellites include a variety of spacecraft equipped with specific instruments for various scientific and technological missions. These include communications satellites like Starlink; space stations such as the ISS; scientific satellites like the Hubble; Earth observation satellites from companies like Planet Labs, Umbra, and HawkEye 360; GPS; miniature CubeSats for education and research; and military/defense satellites.

Loading next visibility...
Identifier
27004, 2001-056D
Orbit
SSO
Last TLE update
20 hours ago
Origin
Manufacturer
TUB
Mission
Operational Civil Imaging
Bus & Motor
TUBSAT, Unknown motor
Mass
45 kg wet, 45 kg dry
Launch date (UTC)
2001-12-10 (24 years ago)
Launch vehicle
ZENIT-2
Launch site
Tyuratam Missile And Space Complex (TTMTR)
Object type
Payload
Rocket body
Debris
Shape & HBR
Box, 0.4 m
Radar Cross Section
0.200 m², Medium (>0.1 m² and < 1m²)

Expand to show TLE details & history

TLE from 20 hours ago
0 MAROC TUBSAT
1 27004U 01056D   25183.75230547 -.00000020  00000-0  30023-4 0  9992
2 27004  99.7799 349.4406 0019280 319.8589  57.5944 13.70243502178331
Epoch: 2025-07-02T18:03Z
TLE epoch observation values (Epoch: 2025-07-02T18:03:19.192Z)
Latitude
17.36541°
Longitude
154.50788°
Altitude
993.312 km
Speed
7.36 km/s
True Right ascension
23h 05m 28s
True Declination
17° 16' 15"
Sunlit
Object was in daylight at epoch
Visualization orbit readout
Latitude
52.25371°
Longitude
-8.78294°
Altitude
1,021.046 km
Speed
7.339 km/s
Apparent Right ascension
12h 57m 11s
Apparent Declination
10° 43' 51"
Sunlit
Object is in daylight
Visualization observer readout
Local Sidereal Time
01:38:43
Azimuth
13.069° NNE
Elevation
-38.444°
Doppler factor
1
Orbital elements
Apogee altitude
1,010.193 km
Perigee altitude
981.758 km
Semi-major axis
7,374.112 km
Eccentricity
0.00193
Inclination
99.7799°
RAAN
349.4406°
Arg. of periapsis
319.8589°
True anomaly
Unknown
Mean anomaly
57.5944°
Eccentric anomaly
Unknown
Mean motion
3.42751 °/min
Orbital period
105.03 mins
BSTAR
0.000030023
Loading maneuver chart data...
Loading SW <> Apogee altitude chart data...
Loading historical data...
Loading historical data...
Loading historical data...
Loading historical data...
Loading historical data...
Loading historical data...
Loading historical data...

MAROC TUBSAT Visibility forecast

Observer location: undefined°, undefined°

Span
Click to sort rows by Start time (UTC) header in descending order
Start Az.
Max El. time (UTC)
Max El. Az.
Max El.
End time (UTC)
End Az.
8 mins2025-07-03 22:37:49.663Z49.433° ENE2025-07-03 22:41:49.663Z89.993° E18.12°2025-07-03 22:45:49.663Z132.565° SE
10 mins2025-07-04 00:21:49.663Z5.141° NNE2025-07-04 00:25:49.663Z303.486° NW42.202°2025-07-04 00:31:49.663Z209.22° SW
10 mins2025-07-04 10:24:49.663Z136.174° SSE2025-07-04 10:28:49.663Z72.687° E37.941°2025-07-04 10:34:49.663Z355.57° N
7 mins2025-07-04 12:09:49.663Z227.444° WSW2025-07-04 12:12:49.663Z265.817° W22.503°2025-07-04 12:16:49.663Z312.285° NW
|